Regional Weather Roundup
Issued by NWS Sioux Falls, SD

Home | Current Version | Previous Version | Graphics & Text | Print | Product List | Glossary Off
Versions: 1 2 3 4 5 6 7 8 9 10 11 12 13 14 15 16 17 18 19 20 21 22 23 24 25 26 27 28 29 30 31 32 33 34 35 36 37 38 39 40 41 42 43 44 45 46 47 48 49 50

000
ASUS43 KFSD 192202
RWRFSD

WEATHER ROUNDUP FOR SE SOUTH DAKOTA/SW MINNESOTA/NW IOWA
NATIONAL WEATHER SERVICE SIOUX FALLS SD
500 PM CDT SAT APR 19 2014

NOTE: "FAIR" INDICATES FEW OR NO CLOUDS BELOW 12,000 FEET WITH NO
SIGNIFICANT WEATHER AND OR OBSTRUCTIONS TO VISIBILITY.


SDZ038>040-050-052>070-192300-
SOUTHEAST SOUTH DAKOTA

CITY           SKY/WX    TMP DP  RH WIND       PRES   REMARKS
CHAMBERLAIN      N/A     70  24  17 W8        30.00F
HURON          MOSUNNY   69  24  18 NW6       29.98S
MADISON        FAIR      63  30  29 N7        30.00S
MITCHELL       PTSUNNY   66  24  20 CALM      30.01R
SIOUX FALLS    CLOUDY    69  35  28 NW6       29.99S
WINNER         FAIR      69  20  15 NW6       30.00F
YANKTON        PTSUNNY   70  43  37 NW6       29.99F
$$

MNZ071-072-080-081-089-090-097-098-192300-
SOUTHWEST MINNESOTA

CITY           SKY/WX    TMP DP  RH WIND       PRES   REMARKS
FAIRMONT       CLOUDY    73  45  35 SW16      29.99S
JACKSON        CLOUDY    72  43  35 SW15      29.98S
LUVERNE        CLOUDY    70  37  30 N12       29.98S
MARSHALL       CLOUDY    64  37  36 NW8       29.98S
MONTEVIDEO     PTSUNNY   68  46  45 W3        29.98S
PIPESTONE      CLOUDY    64  30  27 NW7       29.99F
REDWOOD FALLS  CLOUDY    62  46  55 N8        29.98R
TRACY          CLOUDY    63  46  53 NW8       29.99S
WINDOM         PTSUNNY   72  45  37 SW15      29.97S
WORTHINGTON    CLOUDY    72  45  37 SW13      30.00S
$$

IAZ001>003-012>014-020>022-031-032-NEZ013-014-SDZ071-192300-
NORTHWEST IOWA

CITY           SKY/WX    TMP DP  RH WIND       PRES   REMARKS
DENISON        CLOUDY    77  43  29 SW15G23   29.97F
ESTHERVILLE    CLOUDY    73  48  41 SW18      29.97S
SHELDON        CLOUDY    72  48  43 W13       29.97R
SIOUX CITY     CLOUDY    76  48  37 SW13      29.96S
SPENCER        CLOUDY    74  47  38 SW13      29.97F
STORM LAKE     CLOUDY    75  45  33 S17       29.98F
$$

ABBREVIATIONS USED IN REMARKS
   TC - TEMPERATURE IN CELSIUS
  WCI - WIND CHILL INDEX
   HX - HEAT INDEX
  VSB - VISIBILITY




USA.gov is the U.S. government's official web portal to all federal, state and local government web resources and services.